Location: Unspecified
(0.0000°N, 0.0000°E)
Time: 13:42:07
(UTC+00:00)

A-11 Canister half - Pass Details

Date: 19 November 2019
Orbit: 1526 x 1683 km, 47.3° (Epoch: 08 December)

Event Time Altitude Azimuth Distance (km) Brightness Sun altitude
Rises 10:17:41 0° 248° (WSW) 4,928 11.5 61.0°
Reaches altitude 10° 10:21:36 10° 260° (W) 3,942 11.1 61.7°
Maximum altitude 10:29:29 26° 312° (NW) 2,869 10.5 63.1°
Drops below altitude 10° 10:37:21 10° 4° (N) 3,899 11.1 64.4°
Sets 10:41:16 0° 17° (NNE) 4,864 11.5 65.0°
